This is the latest recevied weather packets stored in our database for station/object F6BIJ-13. If no packets are shown the sender has not sent any weather packets the latest 10 day(s).
| Time | Temp. | Humidity | Pressure | Rain* | Wind** | Luminosity | Snow |
|---|---|---|---|---|---|---|---|
| 1777584637 | 14.44° C | 79% | 1022.1 hPa | 0 mm | - | - | - |
| 1777584277 | 15° C | 77% | 1022 hPa | 0 mm | - | - | - |
| 1777582837 | 15.56° C | 72% | 1021.9 hPa | 0 mm | - | - | - |
| 1777582477 | 15.56° C | 71% | 1021.9 hPa | 0 mm | - | - | - |
| 1777580677 | 16.11° C | 68% | 1021.7 hPa | 0 mm | - | - | - |
| 1777580317 | 16.11° C | 67% | 1021.5 hPa | 0 mm | - | - | - |
| 1777579237 | 17.22° C | 64% | 1021.3 hPa | 0 mm | - | - | - |
| 1777577797 | 17.78° C | 63% | 1020.9 hPa | 0 mm | - | - | - |
| 1777577437 | 17.22° C | 63% | 1020.9 hPa | 0 mm | - | - | - |
| 1777577077 | 17.22° C | 63% | 1020.8 hPa | 0 mm | - | - | - |
| 1777576717 | 17.22° C | 64% | 1020.7 hPa | 0 mm | - | - | - |
| 1777575637 | 17.78° C | 63% | 1020.5 hPa | 0 mm | - | - | - |
| 1777575277 | 17.78° C | 63% | 1020.4 hPa | 0 mm | - | - | - |
| 1777573837 | 17.78° C | 61% | 1020.2 hPa | 0 mm | - | - | - |
| 1777573117 | 18.89° C | 61% | 1020 hPa | 0 mm | - | - | - |
| 1777572037 | 18.89° C | 63% | 1019.7 hPa | 0 mm | - | - | - |
| 1777571317 | 18.89° C | 61% | 1019.5 hPa | 0 mm | - | - | - |
| 1777570597 | 19.44° C | 60% | 1019.3 hPa | 0 mm | - | - | - |
| 1777570237 | 20° C | 59% | 1019.2 hPa | 0 mm | - | - | - |
| 1777569877 | 20° C | 59% | 1019.2 hPa | 0 mm | - | - | - |
| 1777568798 | 19.44° C | 58% | 1019.1 hPa | 0 mm | - | - | - |
| 1777568437 | 19.44° C | 57% | 1019.1 hPa | 0 mm | - | - | - |
| 1777568077 | 20.56° C | 57% | 1019.1 hPa | 0 mm | - | - | - |
| 1777566997 | 21.67° C | 55% | 1019 hPa | 0 mm | - | - | - |
| 1777566637 | 21.67° C | 54% | 1018.9 hPa | 0 mm | - | - | - |
* Rain latest 24 hours (hover to see other rain measurements)
** Current wind speed in m/s (hover to see current wind gust speed)